This demonstration page uses our WeatherBlox Daily Observations layout. Learn more.

Left ArrowRight Arrow

44.8408, -93.29828

Hourly Observations for May 31, 2021

Temp ( °F °C ) Dew Point ( °F °C ) Humidity (%) Winds ( mph kmh ) Pressure ( in mb ) Visibility ( mi km ) Precip ( " mm )
12:53 am 00:53 Mostly Cloudy 58 14.4 53 11.7 84 84 S 8 13 30.17 1022 10 16 0.00 0.00
1:02 am 01:02 Mostly Clear 58 14.4 53 11.7 84 84 S 7 11 30.16 1021 10 16 0.00 0.00
1:53 am 01:53 Mostly Clear 57 13.9 52 11.1 83 83 S 7 11 30.16 1021 10 16 0.00 0.00
2:53 am 02:53 Mostly Clear 56 13.3 52 11.1 87 87 S 3 6 30.16 1021 10 16 0.00 0.00
3:53 am 03:53 Mostly Cloudy 54 12.2 51 10.6 90 90 SE 8 13 30.16 1021 10 16 0.00 0.00
4:37 am 04:37 Cloudy 53 11.7 51 10.6 93 93 SE 7 11 30.15 1021 10 16 0.00 0.00
4:53 am 04:53 Mostly Cloudy 52 11.1 51 10.6 97 97 SSE 7 11 30.15 1021 10 16 0.00 0.00
5:24 am 05:24 Mostly Cloudy 52 11.1 50 10 93 93 SSE 6 9 30.16 1021 10 16 0.00 0.00
5:35 am 05:35 Mostly Cloudy 52 11.1 50 10 93 93 SE 5 7 30.16 1021 9 14 0.00 0.00
5:53 am 05:53 Cloudy 53 11.7 51 10.6 93 93 ENE 5 7 30.17 1022 10 16 0.00 0.00
6:27 am 06:27 Cloudy 53 11.7 51 10.6 93 93 SE 8 13 30.16 1021 9 14 0.00 0.00
6:42 am 06:42 Cloudy 53 11.7 51 10.6 93 93 SE 8 13 30.16 1021 9 14 0.00 0.00
6:53 am 06:53 Cloudy 53 11.7 51 10.6 93 93 SSE 7 11 30.16 1022 9 14 0.00 0.00
7:21 am 07:21 Cloudy 53 11.7 51 10.6 93 93 SSE 7 11 30.16 1021 9 14 0.00 0.00
7:41 am 07:41 Cloudy 54 12.2 51 10.6 90 90 SSE 8 13 30.16 1021 10 16 0.00 0.00
7:53 am 07:53 Cloudy 55 12.8 52 11.1 90 90 SSE 7 11 30.17 1022 10 16 0.00 0.00
8:34 am 08:34 Mostly Cloudy 57 13.9 52 11.1 83 83 VRB 6 9 30.16 1021 10 16 0.00 0.00
8:44 am 08:44 Mostly Cloudy 58 14.4 53 11.7 84 84 SSE 6 9 30.16 1021 10 16 0.00 0.00
8:53 am 08:53 Mostly Cloudy 58 14.4 53 11.7 84 84 S 7 11 30.16 1021 10 16 0.00 0.00
9:09 am 09:09 Mostly Cloudy 60 15.6 54 12.2 80 80 S 6 9 30.15 1021 10 16 0.00 0.00
9:53 am 09:53 Partly Cloudy 62 16.7 54 12.2 75 75 SW 5 7 30.15 1021 10 16 0.00 0.00
10:53 am 10:53 Mostly Sunny 66 18.9 54 12.2 65 65 SW 7 11 30.14 1021 10 16 0.00 0.00
11:53 am 11:53 Mostly Sunny 70 21.1 53 11.7 55 55 W 10 17 30.13 1020 10 16 0.00 0.00
12:53 pm 12:53 Mostly Sunny 73 22.8 53 11.7 50 50 Calm 30.12 1020 10 16 0.00 0.00
1:53 pm 13:53 Partly Cloudy 74 23.3 53 11.7 48 48 WSW 7 11 30.11 1020 10 16 0.00 0.00
2:53 pm 14:53 Partly Cloudy 74 23.3 48 8.9 40 40 W 13 20 30.09 1019 10 16 0.00 0.00
3:53 pm 15:53 Mostly Sunny 77 25 44 6.7 31 31 W 8 13 30.08 1019 10 16 0.00 0.00
4:53 pm 16:53 Partly Cloudy 77 25 44 6.7 31 31 undefined N/A 30.07 1018 10 16 0.00 0.00
5:53 pm 17:53 Mostly Sunny 77 25 39 3.9 26 26 NW 10 17 30.06 1018 10 16 0.00 0.00
6:53 pm 18:53 Mostly Sunny 76 24.4 38 3.3 25 25 WNW 13 20 30.08 1019 10 16 0.00 0.00
7:53 pm 19:53 Mostly Sunny 73 22.8 35 1.7 25 25 NW 7 11 30.08 1019 10 16 0.00 0.00
8:53 pm 20:53 Mostly Clear 70 21.1 39 3.9 32 32 NNW 5 7 30.09 1019 10 16 0.00 0.00
9:53 pm 21:53 Clear 67 19.4 43 6.1 42 42 NNE 5 7 30.11 1020 10 16 0.00 0.00
10:53 pm 22:53 Clear 64 17.8 44 6.7 48 48 NW 3 6 30.13 1020 10 16 0.00 0.00
11:53 pm 23:53 Clear 59 15 47 8.3 64 64 Calm 30.14 1021 10 16 0.00 0.00

Powered by AerisWeather